Regional Weather Roundup
Issued by NWS Sterling, VA

Home | Current Version | Previous Version | Graphics & Text | Print | Product List | Glossary On
Versions: 1 2 3 4 5 6 7 8 9 10 11 12 13 14 15 16 17 18 19 20 21 22 23 24 25 26 27 28 29 30 31 32 33 34 35 36 37 38 39 40 41 42 43 44 45 46 47 48 49 50
020
ASUS41 KLWX 161711
RWRLWX

REGIONAL WEATHER ROUNDUP
NATIONAL WEATHER SERVICE BALTIMORE MD/WASHINGTON DC
1200 PM EST SAT DEC 16 2017

Note: "FAIR" indicates few or no clouds below 12,000 feet
with no significant weather and/or obstructions to visibility.
 TC=TEMPERATURE CELSIUS

 * =Non NWS site. Station does not report precipitation (e.g. rain,
    snow, etc.), thunder, or fog.

DCZ001-MDZ009-015-VAZ040>042-051-053>054-161800-
WASHINGTON METRO

CITY           SKY/WX    TMP DP  RH WIND       PRES   REMARKS
WASHINGTON NAT MOSUNNY   44  22  41 SW16G24   30.13F
DULLES         MOSUNNY   42  23  46 SW15G22   30.10F
ANDREWS AFB    SUNNY     43  23  45 SW15      30.10F
FT BELVOIR     SUNNY     44  20  38 SW6       30.12F
QUANTICO       SUNNY     43  29  57 S18       30.15F
COLLEGE PARK*  SUNNY     40  21  46 S6G18     30.11F
LEESBURG*      SUNNY     43  27  52 SW10G16   30.10F
MANASSAS*      SUNNY     43  21  41 S14G20    30.12F
GAITHERSBURG*  SUNNY     40  22  48 SW13      30.09F

$$

MDZ006>007-011-014-161800-
BALTIMORE METRO

CITY           SKY/WX    TMP DP  RH WIND       PRES   REMARKS
BWI AIRPORT    MOSUNNY   41  23  48 SW14G22   30.09F
MD SCIENCE CTR   N/A     42  23  46 MISG      30.12F
MARTIN STATE   MOSUNNY   37  27  65 S10G17    30.12F
ANNAPOLIS      SUNNY     42  23  46 SW12G22   30.12F
FORT MEADE*    SUNNY     41  23  48 SW15      30.13F

$$

MDZ012-015-019>023-161800-
MARYLAND EASTERN SHORE

CITY           SKY/WX    TMP DP  RH WIND       PRES   REMARKS
OCEAN CITY     SUNNY     44  25  47 W13       30.16F
SALISBURY      SUNNY     43  23  45 W12       30.15F
BAY BRIDGE AP* SUNNY     39  23  52 SW12G20   30.13F
CAMBRIDGE*     MOSUNNY   43  23  45 SW13      30.15F
EASTON*        SUNNY     41  25  52 SW8       30.17F

$$

MDZ017>025-161800-
SOUTHERN MARYLAND

CITY           SKY/WX    TMP DP  RH WIND       PRES   REMARKS
PATUXENT RIVER MOSUNNY   43  21  41 SW15G21   30.15F
ST INIGOES     MOSUNNY   43  23  45 SW14      30.16F
LEONARDTOWN*   MOSUNNY   41  23  48 SW10      30.17F

$$

MDZ003>005-161800-
NORTH CENTRAL MARYLAND

CITY           SKY/WX    TMP DP  RH WIND       PRES   REMARKS
FREDERICK*     SUNNY     43  18  36 SW15G21   30.11F
HAGERSTOWN APT MOSUNNY   43  21  41 SW10      30.04F
WESTMINSTER*   SUNNY     37  25  60 SW15G22   30.05F WCI  28

$$

MDZ501>502-161800-
WESTERN MARYLAND

CITY           SKY/WX    TMP DP  RH WIND       PRES   REMARKS
OAKLAND*       CLOUDY    30  23  74 W13G22    29.95F WCI  20
CUMBERLAND*    MOSUNNY   43  23  45 W6        30.08F

$$

VAZ025>031-161800-
SHENANDOAH VALLEY

CITY           SKY/WX    TMP DP  RH WIND       PRES   REMARKS
WINCHESTER*    SUNNY     41  21  45 S12       30.06F
FRONT ROYAL*   FAIR      43  21  42 MISG      30.07F
LURAY*         SUNNY     43  23  45 S13G20    30.07F
NEW MARKET*    SUNNY     42  20  40 S14G20    30.07F
STAUNTON*      SUNNY     42  22  43 SW14G23   30.11F
WAYNESBORO*    SUNNY     40  22  46 S12       30.10F

$$

WVZ021-048>050-054>055-161800-
EASTERN WEST VIRGINIA PANHANDLE

CITY           SKY/WX    TMP DP  RH WIND       PRES   REMARKS
MARTINSBURG    PTSUNNY   42  20  41 S13       30.05F
PETERSBURG*    SUNNY     46  24  43 W14G22    30.05F

$$

VAZ036>039-050-161800-
CENTRAL FOOTHILLS

CITY           SKY/WX    TMP DP  RH WIND       PRES   REMARKS
CHARLOTTESVILL SUNNY     45  21  38 S14       30.12F
CULPEPER*      FAIR      44  20  38 S13G18    30.13F
ORANGE*        SUNNY     43  23  45 SW10G16   30.14F
GORDONSVILLE*  SUNNY     43  22  42 SW14G21   30.13F
WARRENTON*     SUNNY     45  17  33 S14G20    30.12F

$$

VAZ055>057-161800-
NORTH AND CENTRAL PIEDMONT

CITY           SKY/WX    TMP DP  RH WIND       PRES   REMARKS
FREDERICKSBRG* CLOUDY    43  24  48 SW14      30.14F
STAFFORD*      SUNNY     44  23  42 S9        30.17F

$$

NCZ024-NYZ072-PAZ021-071-VAZ022-071-161800-
OTHER REGIONAL OBSERVATIONS

CITY           SKY/WX    TMP DP  RH WIND       PRES   REMARKS
NEW YORK CITY  CLOUDY    34  20  56 W8G17     30.03F WCI  27
PHILADELPHIA   MOSUNNY   38  25  59 SW18      30.09F WCI  28
PITTSBURGH     CLOUDY    37  26  64 SW10      30.02F
ROANOKE        SUNNY     43  23  45 SW8       30.17F
RICHMOND       MOSUNNY   49  21  33 SW12      30.20F
RALEIGH        MOSUNNY   45  21  38 NW9       30.25F

$$

ANZ530>537-161800-
MARINE OBSERVATIONS

STATION/POSITION TIME  TEMP    WIND        PRES
                       AIR SEA DIR/SP/G
                 (UTC) (F)     (DEG/KT/KT) (MB)
THOMAS PT LIGHT  1700   40 42  230/ 14/ 15   N/A
BALT KEY BRIDGE  1648   40     220/ 12/ 15 1019.1F
COVE POINT       1648   41     250/ 10/ 19 1021.5F
LEWISETTA        1648   41 39  260/ 10/ 12 1021.6F
SOLOMONS ISLAND  1648   42 45  230/ 11/ 13 1020.7F
PINEY POINT      1648          260/ 10/ 12   N/A

$$





USA.gov is the U.S. government's official web portal to all federal, state and local government web resources and services.